TimeMDT,TemperatureF,Dew PointF,Humidity,Sea Level PressureIn,VisibilityMPH,Wind Direction,Wind SpeedMPH,Gust SpeedMPH,PrecipitationIn,Events,Conditions,WindDirDegrees,DateUTC
12:53 AM,77.0,51.1,40,29.82,10.0,ESE,15.0,-,N/A,,Clear,110,2013-07-15 06:53:00
1:53 AM,75.0,51.1,43,29.83,10.0,East,11.5,-,N/A,,Clear,100,2013-07-15 07:53:00
2:53 AM,72.0,51.1,48,29.84,10.0,SE,8.1,-,N/A,,Clear,140,2013-07-15 08:53:00
3:53 AM,71.1,50.0,47,29.83,10.0,ESE,10.4,-,N/A,,Clear,110,2013-07-15 09:53:00
4:53 AM,70.0,50.0,49,29.83,10.0,East,9.2,-,N/A,,Clear,80,2013-07-15 10:53:00
5:53 AM,70.0,50.0,49,29.83,10.0,East,10.4,-,N/A,,Clear,100,2013-07-15 11:53:00
6:53 AM,73.0,50.0,44,29.84,10.0,East,11.5,-,N/A,,Clear,80,2013-07-15 12:53:00
7:53 AM,77.0,51.1,40,29.86,10.0,ESE,10.4,-,N/A,,Clear,120,2013-07-15 13:53:00
8:53 AM,78.1,50.0,37,29.86,10.0,ESE,15.0,-,N/A,,Clear,120,2013-07-15 14:53:00
9:53 AM,81.0,50.0,34,29.86,10.0,SE,9.2,-,N/A,,Clear,140,2013-07-15 15:53:00
10:53 AM,84.0,48.9,29,29.84,10.0,SE,9.2,-,N/A,,Clear,130,2013-07-15 16:53:00
11:53 AM,87.1,48.9,27,29.81,10.0,SSE,9.2,-,N/A,,Clear,160,2013-07-15 17:53:00
12:53 PM,91.0,46.9,22,29.77,10.0,South,9.2,-,N/A,,Clear,180,2013-07-15 18:53:00
1:53 PM,93.0,46.9,20,29.74,10.0,WSW,6.9,-,N/A,,Scattered Clouds,240,2013-07-15 19:53:00
2:53 PM,95.0,46.9,19,29.70,10.0,West,6.9,-,N/A,,Scattered Clouds,270,2013-07-15 20:53:00
3:53 PM,96.1,48.0,19,29.68,10.0,WSW,10.4,17.3,N/A,,Scattered Clouds,250,2013-07-15 21:53:00
4:53 PM,96.1,44.1,17,29.65,10.0,WNW,9.2,17.3,N/A,,Scattered Clouds,300,2013-07-15 22:53:00
5:53 PM,95.0,45.0,18,29.64,10.0,West,16.1,-,N/A,,Scattered Clouds,270,2013-07-15 23:53:00
6:53 PM,95.0,41.0,15,29.62,10.0,NE,8.1,-,N/A,,Scattered Clouds,50,2013-07-16 00:53:00
7:53 PM,87.1,50.0,28,29.68,10.0,SSE,31.1,43.7,N/A,,Mostly Cloudy,160,2013-07-16 01:53:00
8:38 PM,73.4,59.0,61,29.98,5.0,SSE,38.0,49.5,0.20,Rain-Thunderstorm,Thunderstorms and Rain,150,2013-07-16 02:38:00
8:53 PM,73.9,59.0,59,29.77,10.0,SSE,31.1,41.4,0.20,,Mostly Cloudy,160,2013-07-16 02:53:00
9:30 PM,73.4,57.2,57,30.00,10.0,SSE,20.7,31.1,0.00,,Mostly Cloudy,150,2013-07-16 03:30:00
9:50 PM,71.6,59.0,64,30.02,10.0,East,6.9,-,0.00,Thunderstorm,Mostly Cloudy,100,2013-07-16 03:50:00
9:53 PM,72.0,59.0,64,29.81,10.0,East,4.6,-,0.00,Thunderstorm,Mostly Cloudy,100,2013-07-16 03:53:00
10:09 PM,71.6,60.8,69,30.05,10.0,East,9.2,-,N/A,,Mostly Cloudy,80,2013-07-16 04:09:00
10:25 PM,71.6,60.8,69,30.04,10.0,East,13.8,-,N/A,Thunderstorm,Scattered Clouds,100,2013-07-16 04:25:00
10:40 PM,71.6,60.8,69,30.05,10.0,SSE,6.9,-,N/A,,Partly Cloudy,150,2013-07-16 04:40:00
10:53 PM,72.0,61.0,68,29.84,10.0,ESE,4.6,-,N/A,,Mostly Cloudy,110,2013-07-16 04:53:00
11:53 PM,72.0,59.0,64,29.83,10.0,SE,16.1,-,N/A,,Scattered Clouds,140,2013-07-16 05:53:00